| time (UTC) | temp F | wind direction | speed knots | gust knots | rain 1hr in | rain 24hr in | rain mn in | humidity % | barometer mb |
| 20260509080655 | 60 | 223 | 0.9 | 1.7 | 0.00 | 0.00 | 0.00 | 85 | 1014.4 |
| 20260509080155 | 60 | 223 | 0.0 | 1.7 | 0.00 | 0.00 | 0.00 | 85 | 1014.5 |
| 20260509075653 | 60 | 223 | 0.0 | 1.7 | 0.00 | 0.00 | 0.00 | 85 | 1014.5 |
| 20260509075152 | 60 | 223 | 0.9 | 1.7 | 0.00 | 0.00 | 0.00 | 84 | 1014.5 |
| 20260509074922 | 60 | 223 | 0.9 | 1.7 | 0.00 | 0.00 | 0.00 | 84 | 1014.5 |
| 20260509074148 | 60 | 223 | 0.0 | 1.7 | 0.00 | 0.00 | 0.00 | 84 | 1014.6 |
| 20260509073648 | 60 | 223 | 0.9 | 2.6 | 0.00 | 0.00 | 0.00 | 84 | 1014.5 |
| 20260509073143 | 60 | 223 | 0.9 | 2.6 | 0.00 | 0.00 | 0.00 | 84 | 1014.5 |
| 20260509072641 | 61 | 223 | 0.0 | 2.6 | 0.00 | 0.00 | 0.00 | 84 | 1014.5 |
| 20260509072140 | 61 | 223 | 0.9 | 2.6 | 0.00 | 0.00 | 0.00 | 84 | 1014.5 |
| 20260509071640 | 61 | 223 | 0.9 | 1.7 | 0.00 | 0.00 | 0.00 | 84 | 1014.5 |
| 20260509071141 | 61 | 223 | 0.9 | 2.6 | 0.00 | 0.00 | 0.00 | 84 | 1014.5 |
| 20260509070641 | 61 | 223 | 0.9 | 3.5 | 0.00 | 0.00 | 0.00 | 83 | 1014.6 |
| 20260509070412 | 61 | 223 | 0.0 | 3.5 | 0.00 | 0.00 | 0.00 | 84 | 1014.6 |
| 20260509065640 | 61 | 223 | 0.9 | 2.6 | 0.00 | 0.00 | 0.00 | 83 | 1014.6 |
| 20260509065140 | 61 | 223 | 0.9 | 2.6 | 0.00 | 0.00 | 0.00 | 83 | 1014.6 |
| 20260509064636 | 61 | 223 | 0.9 | 2.6 | 0.00 | 0.00 | 0.00 | 83 | 1014.6 |
| 20260509064409 | 61 | 223 | 0.9 | 2.6 | 0.00 | 0.00 | 0.00 | 83 | 1014.7 |
| 20260509063637 | 62 | 223 | 0.9 | 2.6 | 0.00 | 0.00 | 0.00 | 83 | 1014.7 |
| 20260509063133 | 62 | 223 | 0.0 | 2.6 | 0.00 | 0.00 | 0.00 | 82 | 1014.7 |
| 20260509062633 | 62 | 223 | 0.9 | 3.5 | 0.00 | 0.00 | 0.00 | 82 | 1014.7 |
| 20260509062133 | 62 | 223 | 1.7 | 4.3 | 0.00 | 0.00 | 0.00 | 82 | 1014.7 |
| 20260509061632 | 62 | 223 | 1.7 | 4.3 | 0.00 | 0.00 | 0.00 | 82 | 1014.7 |
| 20260509061129 | 62 | 223 | 1.7 | 4.3 | 0.00 | 0.00 | 0.00 | 82 | 1014.7 |
| 20260509060629 | 62 | 223 | 1.7 | 3.5 | 0.00 | 0.00 | 0.00 | 82 | 1014.8 |
| 20260509060124 | 62 | 223 | 1.7 | 4.3 | 0.00 | 0.00 | 0.00 | 81 | 1014.7 |
| 20260509055620 | 62 | 223 | 1.7 | 4.3 | 0.00 | 0.00 | 0.00 | 81 | 1014.7 |
| 20260509055120 | 62 | 223 | 1.7 | 4.3 | 0.00 | 0.00 | 0.00 | 81 | 1014.7 |
| 20260509054619 | 63 | 223 | 2.6 | 5.2 | 0.00 | 0.00 | 0.00 | 81 | 1014.7 |
| 20260509054117 | 63 | 223 | 2.6 | 5.2 | 0.00 | 0.00 | 0.00 | 80 | 1014.7 |
| 20260509053617 | 63 | 223 | 2.6 | 4.3 | 0.00 | 0.00 | 0.00 | 80 | 1014.7 |
| 20260509053110 | 63 | 223 | 2.6 | 4.3 | 0.00 | 0.00 | 0.00 | 80 | 1014.7 |
| 20260509052608 | 63 | 223 | 2.6 | 5.2 | 0.00 | 0.00 | 0.00 | 79 | 1014.8 |
| 20260509052107 | 64 | 223 | 1.7 | 5.2 | 0.00 | 0.00 | 0.00 | 79 | 1014.8 |
| 20260509051838 | 64 | 223 | 1.7 | 3.5 | 0.00 | 0.00 | 0.00 | 79 | 1014.8 |
| 20260509051352 | 64 | 223 | 2.6 | 6.1 | 0.00 | 0.00 | 0.00 | 79 | 1014.8 |
| 20260509050606 | 64 | 223 | 2.6 | 6.1 | 0.00 | 0.00 | 0.00 | 79 | 1014.7 |
| 20260509050339 | 64 | 225 | 2.6 | 5.2 | 0.00 | 0.00 | 0.00 | 78 | 1014.6 |
| 20260509045606 | 64 | 224 | 3.5 | 7.0 | 0.00 | 0.00 | 0.00 | 78 | 1014.6 |
| 20260509045338 | 64 | 224 | 2.6 | 7.0 | 0.00 | 0.00 | 0.00 | 78 | 1014.7 |
| 20260509044606 | 65 | 225 | 2.6 | 6.1 | 0.00 | 0.00 | 0.00 | 77 | 1014.6 |
| 20260509044107 | 65 | 225 | 2.6 | 6.1 | 0.00 | 0.00 | 0.00 | 77 | 1014.4 |
| 20260509043608 | 65 | 225 | 2.6 | 5.2 | 0.00 | 0.00 | 0.00 | 76 | 1014.4 |
| 20260509043107 | 65 | 225 | 2.6 | 6.1 | 0.00 | 0.00 | 0.00 | 76 | 1014.4 |
| 20260509042604 | 65 | 225 | 3.5 | 6.1 | 0.00 | 0.00 | 0.00 | 76 | 1014.3 |
| 20260509042103 | 66 | 225 | 2.6 | 5.2 | 0.00 | 0.00 | 0.00 | 75 | 1014.2 |
| 20260509041601 | 66 | 225 | 2.6 | 6.1 | 0.00 | 0.00 | 0.00 | 74 | 1014.2 |
| 20260509041057 | 66 | 225 | 3.5 | 6.1 | 0.00 | 0.00 | 0.00 | 74 | 1014.1 |
| 20260509040554 | 66 | 225 | 3.5 | 6.1 | 0.00 | 0.00 | 0.00 | 74 | 1014.1 |
| 20260509040108 | 67 | 225 | 3.5 | 6.1 | 0.00 | 0.00 | 0.00 | 73 | 1014.0 |
| 20260509035552 | 67 | 225 | 3.5 | 6.1 | 0.00 | 0.00 | 0.00 | 73 | 1014.0 |
| 20260509035322 | 67 | 225 | 4.3 | 8.7 | 0.00 | 0.00 | 0.00 | 72 | 1013.9 |
| 20260509034545 | 67 | 226 | 4.3 | 8.7 | 0.00 | 0.00 | 0.00 | 71 | 1013.9 |
| 20260509034046 | 68 | 224 | 4.3 | 8.7 | 0.00 | 0.00 | 0.00 | 71 | 1013.9 |
| 20260509033545 | 68 | 223 | 3.5 | 7.8 | 0.00 | 0.00 | 0.00 | 70 | 1013.8 |
| 20260509033044 | 69 | 224 | 4.3 | 7.8 | 0.00 | 0.00 | 0.00 | 70 | 1013.8 |
| 20260509032546 | 69 | 226 | 5.2 | 8.7 | 0.00 | 0.00 | 0.00 | 69 | 1013.7 |
| 20260509031544 | 69 | 226 | 4.3 | 7.0 | 0.00 | 0.00 | 0.00 | 68 | 1013.6 |
| 20260509031043 | 69 | 226 | 5.2 | 7.8 | 0.00 | 0.00 | 0.00 | 68 | 1013.5 |
| 20260509030813 | 69 | 227 | 4.3 | 8.7 | 0.00 | 0.00 | 0.00 | 67 | 1013.5 |
| 20260509030053 | 70 | 226 | 5.2 | 8.7 | 0.00 | 0.00 | 0.00 | 67 | 1013.3 |
| 20260509025541 | 70 | 223 | 5.2 | 8.7 | 0.00 | 0.00 | 0.00 | 66 | 1013.3 |
| 20260509025034 | 71 | 215 | 4.3 | 8.7 | 0.00 | 0.00 | 0.00 | 65 | 1013.2 |
| 20260509024035 | 71 | 224 | 4.3 | 8.7 | 0.00 | 0.00 | 0.00 | 64 | 1013.1 |
| 20260509023806 | 72 | 224 | 5.2 | 9.6 | 0.00 | 0.00 | 0.00 | 63 | 1013.0 |
| 20260509023035 | 72 | 221 | 5.2 | 9.6 | 0.00 | 0.00 | 0.00 | 62 | 1013.0 |
| 20260509022535 | 73 | 226 | 6.1 | 10.4 | 0.00 | 0.00 | 0.00 | 62 | 1013.0 |
| 20260509022034 | 73 | 232 | 6.1 | 10.4 | 0.00 | 0.00 | 0.00 | 61 | 1012.9 |
| 20260509021806 | 74 | 225 | 6.1 | 10.4 | 0.00 | 0.00 | 0.00 | 60 | 1012.8 |
| 20260509021034 | 74 | 229 | 6.1 | 11.3 | 0.00 | 0.00 | 0.00 | 59 | 1012.8 |
| 20260509020805 | 75 | 213 | 6.1 | 11.3 | 0.00 | 0.00 | 0.00 | 58 | 1012.8 |
| 20260509020034 | 76 | 222 | 5.2 | 9.6 | 0.00 | 0.00 | 0.00 | 56 | 1012.7 |
| 20260509015535 | 76 | 223 | 6.1 | 10.4 | 0.00 | 0.00 | 0.00 | 56 | 1012.7 |
| 20260509015035 | 76 | 240 | 6.1 | 10.4 | 0.00 | 0.00 | 0.00 | 55 | 1012.6 |
| 20260509014807 | 77 | 229 | 5.2 | 9.6 | 0.00 | 0.00 | 0.00 | 54 | 1012.6 |
| 20260509014032 | 78 | 221 | 5.2 | 10.4 | 0.00 | 0.00 | 0.00 | 53 | 1012.6 |
| 20260509013531 | 78 | 238 | 6.1 | 10.4 | 0.00 | 0.00 | 0.00 | 52 | 1012.5 |
| 20260509013031 | 79 | 219 | 7.0 | 11.3 | 0.00 | 0.00 | 0.00 | 52 | 1012.5 |
| 20260509012532 | 79 | 218 | 7.0 | 11.3 | 0.00 | 0.00 | 0.00 | 51 | 1012.5 |
| 20260509012026 | 79 | 225 | 7.0 | 11.3 | 0.00 | 0.00 | 0.00 | 51 | 1012.6 |
| 20260509011527 | 79 | 226 | 7.8 | 13.0 | 0.00 | 0.00 | 0.00 | 51 | 1012.5 |
| 20260509011025 | 80 | 223 | 7.0 | 13.0 | 0.00 | 0.00 | 0.00 | 49 | 1012.5 |
| 20260509010526 | 81 | 223 | 5.2 | 9.6 | 0.00 | 0.00 | 0.00 | 48 | 1012.3 |
| 20260509010025 | 82 | 220 | 5.2 | 9.6 | 0.00 | 0.00 | 0.00 | 47 | 1012.3 |
| 20260509005524 | 82 | 226 | 5.2 | 9.6 | 0.00 | 0.00 | 0.00 | 47 | 1012.5 |
| 20260509005024 | 81 | 227 | 5.2 | 8.7 | 0.00 | 0.00 | 0.00 | 48 | 1012.5 |
| 20260509004757 | 81 | 220 | 6.1 | 10.4 | 0.00 | 0.00 | 0.00 | 48 | 1012.6 |
| 20260509003522 | 83 | 203 | 5.2 | 8.7 | 0.00 | 0.00 | 0.00 | 46 | 1012.6 |
| 20260509003021 | 83 | 232 | 5.2 | 9.6 | 0.00 | 0.00 | 0.00 | 45 | 1012.6 |
| 20260509002753 | 83 | 227 | 5.2 | 9.6 | 0.00 | 0.00 | 0.00 | 46 | 1012.5 |
| 20260509001514 | 83 | 250 | 6.1 | 12.2 | 0.00 | 0.00 | 0.00 | 46 | 1012.6 |
| 20260509001013 | 83 | 265 | 6.1 | 13.0 | 0.00 | 0.00 | 0.00 | 46 | 1012.6 |
| 20260509000512 | 83 | 264 | 6.1 | 13.0 | 0.00 | 0.00 | 0.00 | 45 | 1012.6 |
| 20260509000012 | 83 | 241 | 7.0 | 14.8 | 0.00 | 0.00 | 0.00 | 45 | 1012.6 |
| 20260508235513 | 83 | 250 | 6.1 | 14.8 | 0.00 | 0.00 | 0.00 | 46 | 1012.6 |
| 20260508235010 | 82 | 271 | 7.0 | 12.2 | 0.00 | 0.00 | 0.00 | 47 | 1012.7 |
| 20260508234511 | 82 | 223 | 7.0 | 12.2 | 0.00 | 0.00 | 0.00 | 46 | 1012.7 |
| 20260508234005 | 83 | 212 | 6.1 | 11.3 | 0.00 | 0.00 | 0.00 | 46 | 1012.7 |
| 20260508233504 | 83 | 247 | 7.0 | 11.3 | 0.00 | 0.00 | 0.00 | 45 | 1012.7 |
| 20260508233004 | 83 | 223 | 6.1 | 11.3 | 0.00 | 0.00 | 0.00 | 45 | 1012.7 |
| 20260508232504 | 84 | 223 | 5.2 | 11.3 | 0.00 | 0.00 | 0.00 | 45 | 1012.7 |
| 20260508232236 | 84 | 253 | 6.1 | 9.6 | 0.00 | 0.00 | 0.00 | 45 | 1012.8 |
| 20260508231504 | 84 | 256 | 5.2 | 9.6 | 0.00 | 0.00 | 0.00 | 44 | 1012.9 |
| 20260508231005 | 84 | 248 | 5.2 | 8.7 | 0.00 | 0.00 | 0.00 | 44 | 1012.9 |
| 20260508230503 | 84 | 252 | 5.2 | 10.4 | 0.00 | 0.00 | 0.00 | 45 | 1013.0 |
| 20260508230004 | 84 | 246 | 6.1 | 10.4 | 0.00 | 0.00 | 0.00 | 45 | 1013.1 |
| 20260508225501 | 83 | 243 | 6.1 | 11.3 | 0.00 | 0.00 | 0.00 | 46 | 1013.1 |
| 20260508225233 | 83 | 268 | 7.0 | 11.3 | 0.00 | 0.00 | 0.00 | 46 | 1013.1 |
| 20260508224458 | 83 | 221 | 7.0 | 11.3 | 0.00 | 0.00 | 0.00 | 46 | 1013.2 |
| 20260508223958 | 84 | 225 | 6.1 | 11.3 | 0.00 | 0.00 | 0.00 | 46 | 1013.2 |
| 20260508223458 | 85 | 213 | 6.1 | 10.4 | 0.00 | 0.00 | 0.00 | 45 | 1013.3 |
| 20260508223000 | 84 | 242 | 5.2 | 10.4 | 0.00 | 0.00 | 0.00 | 46 | 1013.3 |
| 20260508222459 | 84 | 229 | 5.2 | 10.4 | 0.00 | 0.00 | 0.00 | 46 | 1013.4 |
| 20260508221959 | 84 | 250 | 5.2 | 10.4 | 0.00 | 0.00 | 0.00 | 47 | 1013.4 |
| 20260508221500 | 83 | 247 | 6.1 | 10.4 | 0.00 | 0.00 | 0.00 | 46 | 1013.4 |
| 20260508221000 | 83 | 223 | 6.1 | 12.2 | 0.00 | 0.00 | 0.00 | 46 | 1013.5 |
| 20260508220731 | 84 | 221 | 6.1 | 12.2 | 0.00 | 0.00 | 0.00 | 45 | 1013.5 |
| 20260508215959 | 84 | 223 | 5.2 | 9.6 | 0.00 | 0.00 | 0.00 | 46 | 1013.5 |
| 20260508215459 | 84 | 206 | 5.2 | 11.3 | 0.00 | 0.00 | 0.00 | 45 | 1013.6 |
| 20260508214959 | 84 | 221 | 4.3 | 11.3 | 0.00 | 0.00 | 0.00 | 45 | 1013.6 |
| 20260508214459 | 84 | 226 | 5.2 | 10.4 | 0.00 | 0.00 | 0.00 | 45 | 1013.6 |
| 20260508213958 | 84 | 211 | 5.2 | 10.4 | 0.00 | 0.00 | 0.00 | 45 | 1013.6 |
| 20260508213456 | 84 | 225 | 4.3 | 8.7 | 0.00 | 0.00 | 0.00 | 46 | 1013.7 |
| 20260508212957 | 85 | 237 | 3.5 | 7.8 | 0.00 | 0.00 | 0.00 | 45 | 1013.7 |
| 20260508212457 | 85 | 227 | 4.3 | 8.7 | 0.00 | 0.00 | 0.00 | 45 | 1013.8 |
| 20260508211957 | 85 | 263 | 4.3 | 8.7 | 0.00 | 0.00 | 0.00 | 45 | 1013.8 |
| 20260508211455 | 85 | 265 | 3.5 | 8.7 | 0.00 | 0.00 | 0.00 | 45 | 1013.9 |
| 20260508211225 | 85 | 244 | 3.5 | 6.1 | 0.00 | 0.00 | 0.00 | 45 | 1013.9 |
| 20260508210450 | 85 | 238 | 3.5 | 7.0 | 0.00 | 0.00 | 0.00 | 45 | 1014.0 |
| 20260508205948 | 84 | 227 | 2.6 | 7.0 | 0.00 | 0.00 | 0.00 | 45 | 1014.0 |
| 20260508205450 | 83 | 223 | 1.7 | 6.1 | 0.00 | 0.00 | 0.00 | 46 | 1014.1 |
| 20260508204944 | 83 | 229 | 3.5 | 7.0 | 0.00 | 0.00 | 0.00 | 45 | 1014.3 |
| 20260508204441 | 83 | 246 | 4.3 | 7.8 | 0.00 | 0.00 | 0.00 | 48 | 1014.4 |
| 20260508203940 | 83 | 220 | 3.5 | 7.8 | 0.00 | 0.00 | 0.00 | 46 | 1014.4 |
| 20260508203713 | 83 | 212 | 3.5 | 7.0 | 0.00 | 0.00 | 0.00 | 46 | 1014.4 |
| 20260508202942 | 84 | 212 | 2.6 | 6.1 | 0.00 | 0.00 | 0.00 | 46 | 1014.4 |
| 20260508202438 | 83 | 228 | 2.6 | 6.1 | 0.00 | 0.00 | 0.00 | 46 | 1014.5 |
| 20260508201938 | 82 | 238 | 2.6 | 6.1 | 0.00 | 0.00 | 0.00 | 49 | 1014.5 |
| 20260508201438 | 82 | 203 | 2.6 | 5.2 | 0.00 | 0.00 | 0.00 | 49 | 1014.6 |
| 20260508201210 | 82 | 202 | 3.5 | 7.0 | 0.00 | 0.00 | 0.00 | 48 | 1014.6 |
| 20260508200438 | 82 | 200 | 2.6 | 7.0 | 0.00 | 0.00 | 0.00 | 49 | 1014.6 |
| 20260508195939 | 81 | 224 | 2.6 | 5.2 | 0.00 | 0.00 | 0.00 | 49 | 1014.7 |
| 20260508195709 | 80 | 212 | 2.6 | 5.2 | 0.00 | 0.00 | 0.00 | 52 | 1014.7 |
| 20260508195208 | 80 | 205 | 2.6 | 6.1 | 0.00 | 0.00 | 0.00 | 52 | 1014.9 |
| 20260508194437 | 79 | 198 | 2.6 | 6.1 | 0.00 | 0.00 | 0.00 | 51 | 1014.9 |
| 20260508193938 | 80 | 207 | 2.6 | 6.1 | 0.00 | 0.00 | 0.00 | 51 | 1014.9 |
| 20260508193706 | 79 | 230 | 2.6 | 5.2 | 0.00 | 0.00 | 0.00 | 54 | 1015.0 |
| 20260508192935 | 79 | 223 | 3.5 | 6.1 | 0.00 | 0.00 | 0.00 | 54 | 1015.2 |
| 20260508192434 | 78 | 220 | 3.5 | 7.0 | 0.00 | 0.00 | 0.00 | 55 | 1015.2 |
| 20260508191935 | 78 | 213 | 1.7 | 7.0 | 0.00 | 0.00 | 0.00 | 56 | 1015.3 |
| 20260508191434 | 77 | 228 | 1.7 | 5.2 | 0.00 | 0.00 | 0.00 | 56 | 1015.3 |
| 20260508190940 | 77 | 229 | 2.6 | 5.2 | 0.00 | 0.00 | 0.00 | 56 | 1015.5 |
| 20260508190433 | 76 | 229 | 2.6 | 5.2 | 0.00 | 0.00 | 0.00 | 59 | 1015.5 |
| 20260508185931 | 76 | 229 | 1.7 | 5.2 | 0.00 | 0.00 | 0.00 | 60 | 1015.5 |
| 20260508185429 | 75 | 220 | 2.6 | 5.2 | 0.00 | 0.00 | 0.00 | 59 | 1015.6 |
| 20260508184928 | 75 | 220 | 2.6 | 5.2 | 0.00 | 0.00 | 0.00 | 60 | 1015.7 |
| 20260508184430 | 74 | 221 | 1.7 | 5.2 | 0.00 | 0.00 | 0.00 | 62 | 1015.6 |
| 20260508183929 | 74 | 218 | 2.6 | 5.2 | 0.00 | 0.00 | 0.00 | 63 | 1015.8 |
| 20260508183430 | 73 | 218 | 2.6 | 5.2 | 0.00 | 0.00 | 0.00 | 64 | 1015.8 |
| 20260508182926 | 73 | 218 | 2.6 | 5.2 | 0.00 | 0.00 | 0.00 | 64 | 1015.8 |
| 20260508182425 | 72 | 217 | 2.6 | 5.2 | 0.00 | 0.00 | 0.00 | 64 | 1015.9 |
| 20260508181919 | 72 | 217 | 2.6 | 6.1 | 0.00 | 0.00 | 0.00 | 67 | 1016.0 |
| 20260508181418 | 71 | 209 | 3.5 | 7.0 | 0.00 | 0.00 | 0.00 | 67 | 1016.1 |
| 20260508180914 | 71 | 209 | 2.6 | 7.0 | 0.00 | 0.00 | 0.00 | 67 | 1016.1 |
| 20260508180413 | 71 | 213 | 2.6 | 6.1 | 0.00 | 0.00 | 0.00 | 67 | 1016.2 |
| 20260508175913 | 71 | 214 | 3.5 | 6.1 | 0.00 | 0.00 | 0.00 | 68 | 1016.2 |
| 20260508175641 | 71 | 207 | 1.7 | 6.1 | 0.00 | 0.00 | 0.00 | 68 | 1016.3 |
| 20260508174910 | 70 | 209 | 1.7 | 6.1 | 0.00 | 0.00 | 0.00 | 70 | 1016.3 |
| 20260508174411 | 70 | 209 | 2.6 | 6.1 | 0.00 | 0.00 | 0.00 | 69 | 1016.3 |
| 20260508173908 | 69 | 207 | 2.6 | 6.1 | 0.00 | 0.00 | 0.00 | 71 | 1016.2 |
| 20260508173408 | 69 | 207 | 3.5 | 6.1 | 0.00 | 0.00 | 0.00 | 71 | 1016.3 |
| 20260508172906 | 69 | 201 | 2.6 | 6.1 | 0.00 | 0.00 | 0.00 | 71 | 1016.3 |
| 20260508172408 | 69 | 215 | 1.7 | 6.1 | 0.00 | 0.00 | 0.00 | 72 | 1016.2 |
| 20260508172138 | 68 | 215 | 0.9 | 5.2 | 0.00 | 0.00 | 0.00 | 74 | 1016.3 |
| 20260508171404 | 68 | 215 | 1.7 | 5.2 | 0.00 | 0.00 | 0.00 | 74 | 1016.3 |
| 20260508171136 | 67 | 215 | 1.7 | 5.2 | 0.00 | 0.00 | 0.00 | 75 | 1016.3 |
| 20260508170404 | 67 | 215 | 1.7 | 5.2 | 0.00 | 0.00 | 0.00 | 76 | 1016.4 |
| 20260508165904 | 67 | 219 | 0.9 | 2.6 | 0.00 | 0.00 | 0.00 | 78 | 1016.3 |
| 20260508165404 | 66 | 219 | 0.9 | 2.6 | 0.00 | 0.00 | 0.00 | 79 | 1016.3 |
| 20260508164905 | 66 | 220 | 0.0 | 2.6 | 0.00 | 0.00 | 0.00 | 81 | 1016.4 |
| 20260508164403 | 65 | 220 | 0.9 | 2.6 | 0.00 | 0.00 | 0.00 | 83 | 1016.4 |
| 20260508163904 | 64 | 220 | 0.9 | 2.6 | 0.00 | 0.00 | 0.00 | 83 | 1016.5 |
| 20260508163401 | 63 | 219 | 0.9 | 4.3 | 0.00 | 0.00 | 0.00 | 84 | 1016.5 |
| 20260508162902 | 63 | 219 | 1.7 | 4.3 | 0.00 | 0.00 | 0.00 | 84 | 1016.5 |
| 20260508162359 | 62 | 220 | 1.7 | 4.3 | 0.00 | 0.00 | 0.00 | 84 | 1016.5 |
| 20260508161857 | 62 | 220 | 0.9 | 3.5 | 0.00 | 0.00 | 0.00 | 85 | 1016.5 |
| 20260508161357 | 62 | 220 | 0.9 | 4.3 | 0.00 | 0.00 | 0.00 | 85 | 1016.5 |
| 20260508160857 | 62 | 220 | 0.9 | 4.3 | 0.00 | 0.00 | 0.00 | 85 | 1016.5 |
| 20260508160628 | 62 | 220 | 0.0 | 2.6 | 0.00 | 0.00 | 0.00 | 85 | 1016.5 |
| 20260508160126 | 61 | 220 | 0.9 | 2.6 | 0.00 | 0.00 | 0.00 | 85 | 1016.5 |
| 20260508155353 | 61 | 220 | 1.7 | 3.5 | 0.00 | 0.00 | 0.00 | 85 | 1016.8 |
| 20260508154852 | 61 | 220 | 0.9 | 3.5 | 0.00 | 0.00 | 0.00 | 85 | 1016.6 |
| 20260508154623 | 61 | 220 | 0.0 | 3.5 | 0.00 | 0.00 | 0.00 | 85 | 1016.6 |
| 20260508153853 | 61 | 220 | 0.0 | 0.0 | 0.00 | 0.00 | 0.00 | 85 | 1016.8 |
| 20260508153351 | 61 | 220 | 0.0 | 0.0 | 0.00 | 0.00 | 0.00 | 84 | 1016.8 |
| 20260508152852 | 60 | 220 | 0.0 | 0.0 | 0.00 | 0.00 | 0.00 | 84 | 1016.8 |
| 20260508152351 | 60 | 220 | 0.0 | 0.0 | 0.00 | 0.00 | 0.00 | 84 | 1016.8 |
| 20260508151850 | 60 | 228 | 0.0 | 0.9 | 0.00 | 0.00 | 0.00 | 84 | 1016.8 |
| 20260508151347 | 60 | 228 | 0.9 | 2.6 | 0.00 | 0.00 | 0.00 | 84 | 1016.9 |
| 20260508150845 | 60 | 228 | 0.9 | 2.6 | 0.00 | 0.00 | 0.00 | 84 | 1016.9 |
| 20260508150346 | 60 | 228 | 0.0 | 1.7 | 0.00 | 0.00 | 0.00 | 83 | 1016.9 |
| 20260508145342 | 60 | 228 | 0.0 | 1.7 | 0.00 | 0.00 | 0.00 | 83 | 1017.0 |
| 20260508144843 | 59 | 228 | 0.0 | 1.7 | 0.00 | 0.00 | 0.00 | 83 | 1017.0 |
| 20260508144342 | 59 | 228 | 0.0 | 0.9 | 0.00 | 0.00 | 0.00 | 83 | 1016.9 |
| 20260508143840 | 59 | 228 | 0.0 | 1.7 | 0.00 | 0.00 | 0.00 | 83 | 1016.9 |
| 20260508143341 | 59 | 228 | 0.9 | 1.7 | 0.00 | 0.00 | 0.00 | 83 | 1016.9 |
| 20260508142837 | 59 | 228 | 0.9 | 1.7 | 0.00 | 0.00 | 0.00 | 83 | 1016.9 |
| 20260508142338 | 59 | 228 | 0.0 | 1.7 | 0.00 | 0.00 | 0.00 | 83 | 1016.9 |
| 20260508141830 | 59 | 228 | 0.0 | 2.6 | 0.00 | 0.00 | 0.00 | 83 | 1017.0 |
| 20260508141329 | 59 | 228 | 0.0 | 2.6 | 0.00 | 0.00 | 0.00 | 83 | 1016.9 |
| 20260508140830 | 59 | 228 | 0.0 | 2.6 | 0.00 | 0.00 | 0.00 | 83 | 1017.0 |
| 20260508140326 | 59 | 228 | 0.9 | 2.6 | 0.00 | 0.00 | 0.00 | 83 | 1016.9 |
| 20260508135825 | 59 | 228 | 0.9 | 2.6 | 0.00 | 0.00 | 0.00 | 83 | 1016.8 |
| 20260508135325 | 59 | 228 | 0.9 | 4.3 | 0.00 | 0.00 | 0.00 | 83 | 1016.8 |
| 20260508134822 | 58 | 228 | 0.9 | 4.3 | 0.00 | 0.00 | 0.00 | 83 | 1016.8 |
| 20260508134321 | 58 | 228 | 0.9 | 4.3 | 0.00 | 0.00 | 0.00 | 83 | 1016.8 |
| 20260508133820 | 58 | 228 | 0.9 | 4.3 | 0.00 | 0.00 | 0.00 | 83 | 1016.8 |
| 20260508133550 | 58 | 228 | 1.7 | 4.3 | 0.00 | 0.00 | 0.00 | 83 | 1016.8 |
| 20260508132820 | 58 | 228 | 1.7 | 4.3 | 0.00 | 0.00 | 0.00 | 83 | 1016.6 |
| 20260508132318 | 58 | 228 | 0.9 | 2.6 | 0.00 | 0.00 | 0.00 | 83 | 1016.5 |
| 20260508131817 | 58 | 228 | 1.7 | 3.5 | 0.00 | 0.00 | 0.00 | 83 | 1016.5 |
| 20260508131315 | 58 | 228 | 1.7 | 3.5 | 0.00 | 0.00 | 0.00 | 83 | 1016.5 |
| 20260508131045 | 58 | 228 | 0.9 | 2.6 | 0.00 | 0.00 | 0.00 | 83 | 1016.4 |
| 20260508130543 | 58 | 234 | 0.9 | 1.7 | 0.00 | 0.00 | 0.00 | 83 | 1016.3 |
| 20260508130043 | 58 | 234 | 0.9 | 2.6 | 0.00 | 0.00 | 0.00 | 84 | 1016.3 |
| 20260508125313 | 58 | 234 | 0.9 | 4.3 | 0.00 | 0.00 | 0.00 | 84 | 1016.3 |
| 20260508124811 | 58 | 234 | 0.9 | 4.3 | 0.00 | 0.00 | 0.00 | 83 | 1016.2 |
| 20260508124041 | 58 | 234 | 0.0 | 0.0 | 0.00 | 0.00 | 0.00 | 84 | 1016.2 |
| 20260508123309 | 58 | 234 | 0.0 | 1.7 | 0.00 | 0.00 | 0.00 | 84 | 1016.1 |
| 20260508123037 | 58 | 234 | 0.9 | 4.3 | 0.00 | 0.00 | 0.00 | 84 | 1016.0 |
| 20260508121807 | 58 | 234 | 1.7 | 3.5 | 0.00 | 0.00 | 0.00 | 84 | 1016.0 |
| 20260508121308 | 58 | 234 | 1.7 | 3.5 | 0.00 | 0.00 | 0.00 | 84 | 1016.0 |
| 20260508120805 | 58 | 234 | 1.7 | 2.6 | 0.00 | 0.00 | 0.00 | 85 | 1015.8 |
| 20260508120304 | 58 | 234 | 1.7 | 3.5 | 0.00 | 0.00 | 0.00 | 85 | 1015.9 |
| 20260508115758 | 58 | 234 | 1.7 | 3.5 | 0.00 | 0.00 | 0.00 | 85 | 1015.8 |
| 20260508115525 | 58 | 234 | 0.9 | 3.5 | 0.00 | 0.00 | 0.00 | 85 | 1015.8 |
| 20260508114755 | 58 | 234 | 1.7 | 3.5 | 0.00 | 0.00 | 0.00 | 85 | 1015.8 |
| 20260508114253 | 58 | 234 | 1.7 | 3.5 | 0.00 | 0.00 | 0.00 | 85 | 1015.7 |
| 20260508113751 | 58 | 234 | 1.7 | 3.5 | 0.00 | 0.00 | 0.00 | 85 | 1015.7 |
| 20260508113521 | 58 | 234 | 1.7 | 2.6 | 0.00 | 0.00 | 0.00 | 85 | 1015.7 |
| 20260508113019 | 58 | 234 | 1.7 | 3.5 | 0.00 | 0.00 | 0.00 | 85 | 1015.7 |
| 20260508112242 | 57 | 234 | 1.7 | 4.3 | 0.00 | 0.00 | 0.00 | 86 | 1015.7 |
| 20260508112009 | 57 | 234 | 1.7 | 4.3 | 0.00 | 0.00 | 0.00 | 86 | 1015.8 |
| 20260508111239 | 57 | 234 | 1.7 | 4.3 | 0.00 | 0.00 | 0.00 | 86 | 1015.7 |
| 20260508110738 | 58 | 234 | 1.7 | 4.3 | 0.00 | 0.00 | 0.00 | 86 | 1015.7 |
| 20260508110240 | 58 | 234 | 1.7 | 4.3 | 0.00 | 0.00 | 0.00 | 86 | 1015.7 |
| 20260508105738 | 58 | 234 | 1.7 | 4.3 | 0.00 | 0.00 | 0.00 | 86 | 1015.6 |
| 20260508105239 | 58 | 234 | 1.7 | 3.5 | 0.00 | 0.00 | 0.00 | 86 | 1015.7 |
| 20260508104738 | 58 | 234 | 1.7 | 3.5 | 0.00 | 0.00 | 0.00 | 86 | 1015.7 |
| 20260508104237 | 57 | 234 | 0.9 | 2.6 | 0.00 | 0.00 | 0.00 | 86 | 1015.7 |
| 20260508103737 | 58 | 234 | 0.0 | 1.7 | 0.00 | 0.00 | 0.00 | 86 | 1015.8 |
| 20260508103237 | 58 | 234 | 0.9 | 1.7 | 0.00 | 0.00 | 0.00 | 86 | 1015.8 |
| 20260508102737 | 58 | 234 | 0.9 | 2.6 | 0.00 | 0.00 | 0.00 | 86 | 1015.8 |
| 20260508102236 | 58 | 234 | 0.9 | 2.6 | 0.00 | 0.00 | 0.00 | 86 | 1015.8 |
| 20260508102007 | 58 | 234 | 1.7 | 3.5 | 0.00 | 0.00 | 0.00 | 86 | 1015.8 |
| 20260508101236 | 58 | 234 | 1.7 | 3.5 | 0.00 | 0.00 | 0.00 | 86 | 1015.8 |
| 20260508100736 | 58 | 234 | 0.9 | 3.5 | 0.00 | 0.00 | 0.00 | 86 | 1015.8 |
| 20260508100237 | 58 | 234 | 0.9 | 3.5 | 0.00 | 0.00 | 0.00 | 86 | 1015.8 |
| 20260508095730 | 58 | 234 | 0.9 | 2.6 | 0.00 | 0.00 | 0.00 | 86 | 1015.7 |
| 20260508095230 | 58 | 234 | 0.9 | 2.6 | 0.00 | 0.00 | 0.00 | 86 | 1015.7 |
| 20260508094731 | 58 | 234 | 0.9 | 3.5 | 0.00 | 0.00 | 0.00 | 86 | 1015.7 |
| 20260508094232 | 58 | 234 | 1.7 | 3.5 | 0.00 | 0.00 | 0.00 | 85 | 1015.7 |
| 20260508093730 | 58 | 234 | 0.9 | 2.6 | 0.00 | 0.00 | 0.00 | 85 | 1015.8 |
| 20260508093501 | 59 | 234 | 0.9 | 2.6 | 0.00 | 0.00 | 0.00 | 85 | 1015.8 |
| 20260508092730 | 59 | 234 | 0.9 | 2.6 | 0.00 | 0.00 | 0.00 | 85 | 1015.8 |
| 20260508092231 | 59 | 234 | 0.9 | 2.6 | 0.00 | 0.00 | 0.00 | 85 | 1015.8 |
| 20260508091731 | 59 | 234 | 0.9 | 2.6 | 0.00 | 0.00 | 0.00 | 85 | 1015.8 |
| 20260508091231 | 59 | 234 | 0.9 | 1.7 | 0.00 | 0.00 | 0.00 | 85 | 1015.8 |
| 20260508090728 | 59 | 234 | 0.9 | 2.6 | 0.00 | 0.00 | 0.00 | 84 | 1015.8 |
| 20260508090228 | 59 | 234 | 0.9 | 2.6 | 0.00 | 0.00 | 0.00 | 84 | 1015.8 |
| 20260508085226 | 59 | 234 | 0.9 | 1.7 | 0.00 | 0.00 | 0.00 | 84 | 1015.9 |
| 20260508084727 | 60 | 234 | 0.9 | 3.5 | 0.00 | 0.00 | 0.00 | 84 | 1016.0 |
| 20260508084226 | 60 | 234 | 0.9 | 3.5 | 0.00 | 0.00 | 0.00 | 84 | 1016.0 |
| 20260508083727 | 60 | 234 | 0.9 | 3.5 | 0.00 | 0.00 | 0.00 | 83 | 1016.0 |
| 20260508083458 | 60 | 234 | 0.9 | 2.6 | 0.00 | 0.00 | 0.00 | 83 | 1016.1 |
| 20260508082726 | 60 | 234 | 0.0 | 2.6 | 0.00 | 0.00 | 0.00 | 83 | 1016.2 |
| 20260508082223 | 60 | 234 | 0.0 | 1.7 | 0.00 | 0.00 | 0.00 | 83 | 1016.2 |
| 20260508081723 | 60 | 234 | 0.0 | 2.6 | 0.00 | 0.00 | 0.00 | 83 | 1016.2 |
| 20260508081221 | 60 | 234 | 0.9 | 2.6 | 0.00 | 0.00 | 0.00 | 83 | 1016.2 |